| time (UTC) | temp C | wind direction | speed KPH | gust KPH | rain 1hr cm | rain 24hr cm | rain mn cm | humidity % | barometer mb |
| 20260906205818 | 33 | 137 | 0.0 | 1.6 | 0.00 | 2.49 | 2.31 | 64 | 1009.4 |
| 20260906205319 | 33 | 90 | 3.2 | 4.8 | 0.00 | 2.49 | 2.31 | 65 | 1009.4 |
| 20260906204818 | 33 | 80 | 0.0 | 1.6 | 0.00 | 2.49 | 2.31 | 67 | 1009.4 |
| 20260906204318 | 33 | 0 | 1.6 | 3.2 | 0.00 | 2.49 | 2.31 | 67 | 1009.5 |
| 20260906203819 | 33 | 45 | 1.6 | 1.6 | 0.00 | 2.49 | 2.31 | 67 | 1009.5 |
| 20260906203318 | 32 | 89 | 1.6 | 3.2 | 0.00 | 2.49 | 2.31 | 67 | 1009.5 |
| 20260906202819 | 32 | 210 | 0.0 | 1.6 | 0.00 | 2.49 | 2.31 | 67 | 1009.6 |
| 20260906202319 | 32 | 3 | 0.0 | 0.0 | 0.00 | 2.49 | 2.31 | 68 | 1009.6 |
| 20260906201819 | 32 | 3 | 1.6 | 3.2 | 0.00 | 2.49 | 2.31 | 69 | 1009.6 |
| 20260906201319 | 32 | 0 | 3.2 | 3.2 | 0.00 | 2.49 | 2.31 | 71 | 1009.6 |
| 20260906200819 | 32 | 14 | 0.0 | 0.0 | 0.00 | 2.49 | 2.31 | 71 | 1009.6 |
| 20260906200319 | 32 | 24 | 1.6 | 1.6 | 0.00 | 2.49 | 2.31 | 70 | 1009.6 |
| 20260906195819 | 33 | 150 | 0.0 | 0.0 | 0.00 | 2.49 | 2.31 | 69 | 1009.5 |
| 20260906195318 | 33 | 88 | 1.6 | 1.6 | 0.00 | 2.49 | 2.31 | 66 | 1009.5 |
| 20260906194820 | 33 | 354 | 3.2 | 6.4 | 0.00 | 2.49 | 2.31 | 66 | 1009.5 |
| 20260906194320 | 33 | 144 | 0.0 | 0.0 | 0.00 | 2.49 | 2.31 | 66 | 1009.8 |
| 20260906193818 | 33 | 346 | 3.2 | 9.7 | 0.00 | 2.49 | 2.31 | 68 | 1009.8 |
| 20260906193319 | 33 | 52 | 1.6 | 3.2 | 0.00 | 2.49 | 2.31 | 66 | 1009.8 |
| 20260906192820 | 33 | 48 | 1.6 | 1.6 | 0.00 | 2.49 | 2.31 | 67 | 1010.1 |
| 20260906192223 | 33 | 336 | 0.0 | 4.8 | 0.00 | 2.49 | 2.31 | 65 | 1010.1 |
| 20260906191723 | 33 | 30 | 3.2 | 4.8 | 0.00 | 2.49 | 2.31 | 64 | 1010.1 |
| 20260906191222 | 32 | 100 | 1.6 | 3.2 | 0.00 | 2.49 | 2.31 | 64 | 1010.5 |
| 20260906190724 | 32 | 59 | 0.0 | 1.6 | 0.00 | 2.49 | 2.31 | 66 | 1010.5 |
| 20260906190223 | 32 | 332 | 3.2 | 3.2 | 0.00 | 2.49 | 2.31 | 67 | 1010.5 |
| 20260906185722 | 32 | 0 | 0.0 | 1.6 | 0.00 | 2.49 | 2.31 | 67 | 1010.9 |
| 20260906185223 | 32 | 356 | 1.6 | 1.6 | 0.00 | 2.49 | 2.31 | 65 | 1010.9 |
| 20260906184723 | 32 | 10 | 4.8 | 6.4 | 0.00 | 2.49 | 2.31 | 66 | 1010.9 |
| 20260906184222 | 32 | 271 | 0.0 | 1.6 | 0.00 | 2.49 | 2.31 | 66 | 1011.1 |
| 20260906183722 | 32 | 275 | 0.0 | 1.6 | 0.00 | 2.49 | 2.31 | 67 | 1011.1 |
| 20260906183223 | 32 | 332 | 3.2 | 3.2 | 0.00 | 2.49 | 2.31 | 67 | 1011.1 |
| 20260906182722 | 32 | 0 | 3.2 | 3.2 | 0.00 | 2.49 | 2.31 | 65 | 1011.1 |
| 20260906182222 | 32 | 356 | 0.0 | 1.6 | 0.00 | 2.49 | 2.31 | 62 | 1011.1 |
| 20260906181723 | 32 | 23 | 3.2 | 3.2 | 0.00 | 2.49 | 2.31 | 64 | 1011.1 |
| 20260906181222 | 32 | 0 | 0.0 | 0.0 | 0.00 | 2.49 | 2.31 | 63 | 1011.3 |
| 20260906180722 | 32 | 329 | 0.0 | 3.2 | 0.00 | 2.49 | 2.31 | 63 | 1011.3 |
| 20260906180223 | 32 | 230 | 0.0 | 0.0 | 0.00 | 2.49 | 2.31 | 64 | 1011.3 |
| 20260906175722 | 32 | 230 | 0.0 | 1.6 | 0.00 | 2.49 | 2.31 | 64 | 1011.5 |
| 20260906175223 | 32 | 336 | 0.0 | 1.6 | 0.00 | 2.49 | 2.31 | 66 | 1011.5 |
| 20260906174722 | 32 | 342 | 0.0 | 0.0 | 0.00 | 2.49 | 2.31 | 63 | 1011.5 |
| 20260906174224 | 32 | 342 | 0.0 | 0.0 | 0.00 | 2.49 | 2.31 | 66 | 1011.6 |
| 20260906173722 | 32 | 7 | 0.0 | 1.6 | 0.00 | 2.49 | 2.31 | 73 | 1011.6 |
| 20260906173223 | 31 | 275 | 0.0 | 0.0 | 0.00 | 2.49 | 2.31 | 69 | 1011.6 |
| 20260906172723 | 31 | 325 | 0.0 | 0.0 | 0.00 | 2.49 | 2.31 | 72 | 1012.0 |
| 20260906172223 | 31 | 318 | 0.0 | 4.8 | 0.00 | 2.49 | 2.31 | 70 | 1012.0 |
| 20260906171724 | 31 | 335 | 1.6 | 3.2 | 0.00 | 2.49 | 2.31 | 71 | 1012.0 |
| 20260906171223 | 31 | 251 | 0.0 | 3.2 | 0.00 | 2.49 | 2.31 | 69 | 1011.9 |
| 20260906170723 | 31 | 296 | 6.4 | 6.4 | 0.00 | 2.49 | 2.31 | 75 | 1011.9 |
| 20260906170224 | 31 | 13 | 1.6 | 3.2 | 0.00 | 2.49 | 2.31 | 76 | 1011.9 |
| 20260906165724 | 30 | 347 | 1.6 | 1.6 | 0.00 | 2.49 | 2.31 | 77 | 1012.2 |
| 20260906165222 | 30 | 51 | 1.6 | 1.6 | 0.00 | 2.49 | 2.31 | 78 | 1012.2 |
| 20260906164723 | 30 | 95 | 0.0 | 1.6 | 0.00 | 2.49 | 2.31 | 76 | 1012.2 |
| 20260906164224 | 30 | 104 | 0.0 | 0.0 | 0.00 | 2.49 | 2.31 | 75 | 1012.3 |
| 20260906163722 | 30 | 128 | 1.6 | 1.6 | 0.00 | 2.49 | 2.31 | 75 | 1012.3 |
| 20260906163224 | 30 | 64 | 3.2 | 3.2 | 0.00 | 2.49 | 2.31 | 75 | 1012.3 |
| 20260906162723 | 29 | 93 | 0.0 | 0.0 | 0.00 | 2.49 | 2.31 | 76 | 1012.5 |
| 20260906162222 | 29 | 295 | 0.0 | 1.6 | 0.00 | 2.49 | 2.31 | 80 | 1012.5 |
| 20260906161723 | 29 | 268 | 1.6 | 4.8 | 0.00 | 2.49 | 2.31 | 80 | 1012.5 |
| 20260906161223 | 29 | 237 | 1.6 | 3.2 | 0.00 | 2.49 | 2.31 | 80 | 1012.4 |
| 20260906160722 | 28 | 195 | 0.0 | 0.0 | 0.00 | 2.49 | 2.31 | 82 | 1012.4 |
| 20260906160223 | 28 | 147 | 0.0 | 1.6 | 0.00 | 2.49 | 2.31 | 83 | 1012.4 |
| 20260906155723 | 28 | 160 | 3.2 | 3.2 | 0.00 | 2.49 | 2.31 | 85 | 1012.5 |
| 20260906155224 | 28 | 356 | 3.2 | 3.2 | 0.00 | 2.49 | 2.31 | 85 | 1012.5 |
| 20260906154724 | 28 | 52 | 0.0 | 0.0 | 0.00 | 2.49 | 2.31 | 85 | 1012.5 |
| 20260906154222 | 28 | 52 | 0.0 | 1.6 | 0.00 | 2.49 | 2.31 | 87 | 1012.5 |
| 20260906154156 | 27 | 264 | 0.0 | 0.0 | 0.00 | 2.49 | 2.31 | 87 | 1012.5 |
| 20260906153723 | 27 | 215 | 0.0 | 0.0 | 0.00 | 2.49 | 2.31 | 87 | 1012.5 |
| 20260906153223 | 27 | 150 | 0.0 | 1.6 | 0.00 | 2.49 | 2.31 | 89 | 1012.5 |
| 20260906153156 | 27 | 151 | 1.6 | 1.6 | 0.00 | 2.49 | 2.31 | 89 | 1012.5 |
| 20260906152722 | 27 | 246 | 0.0 | 0.0 | 0.00 | 2.49 | 2.31 | 90 | 1012.4 |
| 20260906152224 | 26 | 172 | 0.0 | 0.0 | 0.00 | 2.49 | 2.31 | 90 | 1012.4 |
| 20260906152200 | 26 | 172 | 0.0 | 1.6 | 0.00 | 2.49 | 2.31 | 90 | 1012.4 |
| 20260906151722 | 26 | 178 | 0.0 | 0.0 | 0.00 | 2.49 | 2.31 | 90 | 1012.4 |
| 20260906151223 | 26 | 179 | 1.6 | 1.6 | 0.00 | 2.49 | 2.31 | 90 | 1012.4 |
| 20260906151201 | 26 | 160 | 0.0 | 0.0 | 0.00 | 2.49 | 2.31 | 90 | 1012.4 |
| 20260906150724 | 26 | 148 | 0.0 | 0.0 | 0.00 | 2.49 | 2.31 | 90 | 1012.4 |
| 20260906150222 | 26 | 147 | 0.0 | 4.8 | 0.00 | 2.49 | 2.31 | 91 | 1012.4 |
| 20260906150155 | 26 | 151 | 4.8 | 4.8 | 0.00 | 2.49 | 2.31 | 91 | 1012.4 |
| 20260906145723 | 25 | 174 | 1.6 | 1.6 | 0.00 | 2.49 | 2.31 | 93 | 1012.2 |
| 20260906145223 | 25 | 157 | 0.0 | 1.6 | 0.00 | 2.49 | 2.31 | 94 | 1012.2 |
| 20260906145158 | 25 | 215 | 0.0 | 1.6 | 0.00 | 2.49 | 2.31 | 94 | 1012.2 |
| 20260906144723 | 25 | 213 | 0.0 | 3.2 | 0.00 | 2.49 | 2.31 | 94 | 1012.2 |
| 20260906144222 | 25 | 152 | 0.0 | 0.0 | 0.00 | 2.49 | 2.31 | 97 | 1012.1 |
| 20260906144158 | 25 | 152 | 0.0 | 3.2 | 0.00 | 2.49 | 2.31 | 97 | 1012.1 |
| 20260906143723 | 25 | 196 | 0.0 | 4.8 | 0.00 | 2.49 | 2.31 | 100 | 1012.1 |
| 20260906143231 | 25 | 210 | 0.0 | 3.2 | 0.00 | 2.49 | 2.31 | 100 | 1012.1 |
| 20260906143223 | 25 | 253 | 1.6 | 1.6 | 0.00 | 2.49 | 2.31 | 100 | 1012.1 |
| 20260906143159 | 25 | 210 | 0.0 | 3.2 | 0.00 | 2.49 | 2.31 | 100 | 1012.1 |
| 20260906142722 | 25 | 208 | 0.0 | 0.0 | 0.00 | 2.49 | 2.31 | 100 | 1012.5 |
| 20260906142223 | 25 | 137 | 0.0 | 0.0 | 0.00 | 2.49 | 2.31 | 100 | 1012.5 |
| 20260906142155 | 25 | 179 | 0.0 | 0.0 | 0.00 | 2.49 | 2.31 | 100 | 1012.5 |
| 20260906141723 | 24 | 209 | 0.0 | 1.6 | 0.00 | 2.49 | 2.31 | 100 | 1012.5 |
| 20260906141222 | 24 | 246 | 0.0 | 0.0 | 0.00 | 2.49 | 2.31 | 100 | 1012.2 |
| 20260906141201 | 24 | 244 | 0.0 | 0.0 | 0.00 | 2.49 | 2.31 | 100 | 1012.2 |
| 20260906140722 | 23 | 212 | 0.0 | 0.0 | 0.00 | 2.49 | 2.31 | 100 | 1012.2 |
| 20260906140224 | 23 | 155 | 0.0 | 0.0 | 0.00 | 2.49 | 2.31 | 100 | 1012.2 |
| 20260906140202 | 23 | 155 | 0.0 | 1.6 | 0.00 | 2.49 | 2.31 | 100 | 1012.2 |
| 20260906135722 | 23 | 193 | 0.0 | 0.0 | 0.00 | 2.49 | 2.31 | 100 | 1012.3 |
| 20260906135240 | 23 | 217 | 3.2 | 3.2 | 0.00 | 2.49 | 2.31 | 100 | 1012.3 |
| 20260906135223 | 23 | 165 | 0.0 | 3.2 | 0.00 | 2.49 | 2.31 | 100 | 1012.3 |
| 20260906135157 | 23 | 217 | 3.2 | 3.2 | 0.00 | 2.49 | 2.31 | 100 | 1012.3 |
| 20260906134722 | 23 | 161 | 1.6 | 3.2 | 0.00 | 2.49 | 2.31 | 100 | 1012.3 |
| 20260906134223 | 23 | 219 | 0.0 | 0.0 | 0.00 | 2.49 | 2.31 | 100 | 1012.4 |
| 20260906134157 | 23 | 216 | 0.0 | 3.2 | 0.00 | 2.49 | 2.31 | 100 | 1012.4 |
| 20260906133723 | 23 | 216 | 0.0 | 1.6 | 0.00 | 2.49 | 2.31 | 100 | 1012.4 |
| 20260906133617 | 23 | 212 | 0.0 | 0.0 | 0.00 | 2.49 | 2.31 | 100 | 1012.4 |
| 20260906133222 | 23 | 151 | 0.0 | 0.0 | 0.00 | 2.49 | 2.31 | 100 | 1012.4 |
| 20260906133201 | 23 | 212 | 0.0 | 0.0 | 0.00 | 2.49 | 2.31 | 100 | 1012.4 |
| 20260906132723 | 23 | 158 | 0.0 | 0.0 | 0.00 | 2.49 | 2.31 | 100 | 1012.3 |
| 20260906132223 | 23 | 150 | 3.2 | 4.8 | 0.00 | 2.49 | 2.31 | 100 | 1012.3 |
| 20260906132156 | 23 | 171 | 1.6 | 6.4 | 0.00 | 2.49 | 2.31 | 100 | 1012.3 |
| 20260906131723 | 22 | 143 | 0.0 | 1.6 | 0.00 | 2.49 | 2.31 | 100 | 1012.3 |
| 20260906131230 | 22 | 306 | 0.0 | 0.0 | 0.00 | 2.49 | 2.31 | 100 | 1012.3 |
| 20260906131224 | 22 | 306 | 0.0 | 0.0 | 0.00 | 2.49 | 2.31 | 100 | 1012.3 |
| 20260906131157 | 22 | 306 | 0.0 | 0.0 | 0.00 | 2.49 | 2.31 | 100 | 1012.3 |
| 20260906130722 | 22 | 346 | 0.0 | 1.6 | 0.00 | 2.49 | 2.31 | 100 | 1012.3 |
| 20260906130223 | 22 | 0 | 1.6 | 4.8 | 0.00 | 2.49 | 2.31 | 100 | 1012.3 |
| 20260906130157 | 22 | 11 | 1.6 | 4.8 | 0.00 | 2.49 | 2.31 | 100 | 1012.3 |
| 20260906125723 | 22 | 7 | 0.0 | 6.4 | 0.00 | 2.49 | 2.31 | 100 | 1012.2 |
| 20260906125223 | 22 | 0 | 8.0 | 9.7 | 0.00 | 2.49 | 2.31 | 100 | 1012.2 |
| 20260906125157 | 22 | 346 | 4.8 | 4.8 | 0.00 | 2.49 | 2.31 | 100 | 1012.2 |
| 20260906124724 | 22 | 0 | 6.4 | 6.4 | 0.00 | 2.49 | 2.31 | 100 | 1012.2 |
| 20260906124223 | 22 | 346 | 1.6 | 3.2 | 0.00 | 2.49 | 2.31 | 100 | 1012.0 |
| 20260906124158 | 22 | 352 | 0.0 | 4.8 | 0.00 | 2.49 | 2.31 | 100 | 1012.0 |
| 20260906123723 | 22 | 322 | 1.6 | 1.6 | 0.00 | 2.49 | 2.31 | 100 | 1012.0 |
| 20260906123224 | 22 | 342 | 1.6 | 1.6 | 0.00 | 2.49 | 2.31 | 100 | 1012.0 |
| 20260906123157 | 22 | 198 | 0.0 | 0.0 | 0.00 | 2.49 | 2.31 | 100 | 1012.0 |
| 20260906122722 | 22 | 38 | 0.0 | 0.0 | 0.00 | 2.49 | 2.31 | 100 | 1011.6 |
| 20260906122223 | 22 | 102 | 0.0 | 0.0 | 0.00 | 2.49 | 2.31 | 100 | 1011.6 |
| 20260906122157 | 22 | 102 | 0.0 | 0.0 | 0.00 | 2.49 | 2.31 | 100 | 1011.6 |
| 20260906121723 | 22 | 352 | 8.0 | 8.0 | 0.00 | 2.49 | 2.31 | 100 | 1011.6 |
| 20260906121233 | 21 | 1 | 6.4 | 6.4 | 0.00 | 2.49 | 2.31 | 100 | 1011.4 |
| 20260906121223 | 21 | 352 | 16.1 | 16.1 | 0.00 | 2.49 | 2.31 | 100 | 1011.4 |
| 20260906121200 | 21 | 1 | 6.4 | 6.4 | 0.00 | 2.49 | 2.31 | 100 | 1011.4 |
| 20260906120724 | 21 | 350 | 14.5 | 14.5 | 0.00 | 2.49 | 2.31 | 100 | 1011.4 |
| 20260906120222 | 21 | 326 | 4.8 | 14.5 | 0.00 | 2.49 | 2.31 | 100 | 1011.4 |
| 20260906120201 | 21 | 1 | 4.8 | 8.0 | 0.00 | 2.49 | 2.31 | 100 | 1011.4 |
| 20260906115722 | 21 | 313 | 8.0 | 11.3 | 0.00 | 2.49 | 2.31 | 100 | 1011.4 |
| 20260906115404 | 21 | 0 | 6.4 | 6.4 | 0.00 | 2.49 | 2.31 | 100 | 1011.4 |
| 20260906115246 | 21 | 0 | 6.4 | 6.4 | 0.00 | 2.49 | 2.31 | 100 | 1011.4 |
| 20260906115222 | 21 | 356 | 8.0 | 8.0 | 0.00 | 2.49 | 2.31 | 100 | 1011.4 |
| 20260906115209 | 21 | 0 | 6.4 | 6.4 | 0.00 | 2.49 | 2.31 | 100 | 1011.4 |
| 20260906114723 | 21 | 330 | 3.2 | 11.3 | 0.00 | 2.49 | 2.31 | 100 | 1011.4 |
| 20260906114222 | 21 | 350 | 4.8 | 6.4 | 0.00 | 2.49 | 2.31 | 100 | 1011.5 |
| 20260906114157 | 21 | 0 | 4.8 | 8.0 | 0.00 | 2.49 | 2.31 | 100 | 1011.5 |
| 20260906113722 | 21 | 354 | 3.2 | 3.2 | 0.00 | 2.49 | 2.31 | 100 | 1011.5 |
| 20260906113223 | 21 | 350 | 6.4 | 9.7 | 0.00 | 2.49 | 2.31 | 100 | 1011.5 |
| 20260906113156 | 21 | 343 | 1.6 | 8.0 | 0.00 | 2.49 | 2.31 | 100 | 1011.5 |
| 20260906112722 | 21 | 272 | 6.4 | 11.3 | 0.03 | 2.49 | 2.31 | 100 | 1011.4 |
| 20260906112223 | 21 | 323 | 8.0 | 9.7 | 0.03 | 2.49 | 2.31 | 100 | 1011.4 |
| 20260906112157 | 21 | 0 | 6.4 | 8.0 | 0.03 | 2.49 | 2.31 | 100 | 1011.4 |
| 20260906111722 | 21 | 1 | 3.2 | 4.8 | 0.03 | 2.49 | 2.31 | 100 | 1011.4 |
| 20260906111223 | 21 | 0 | 1.6 | 3.2 | 0.03 | 2.49 | 2.31 | 100 | 1011.4 |
| 20260906111208 | 21 | 0 | 3.2 | 6.4 | 0.03 | 2.49 | 2.31 | 100 | 1011.4 |
| 20260906110723 | 21 | 337 | 3.2 | 6.4 | 0.05 | 2.49 | 2.31 | 100 | 1011.4 |
| 20260906110222 | 21 | 113 | 0.0 | 0.0 | 0.05 | 2.49 | 2.31 | 100 | 1011.4 |
| 20260906110157 | 21 | 113 | 0.0 | 0.0 | 0.05 | 2.49 | 2.31 | 100 | 1011.4 |
| 20260906105724 | 21 | 113 | 0.0 | 0.0 | 0.10 | 2.49 | 2.31 | 100 | 1011.4 |
| 20260906105222 | 21 | 113 | 0.0 | 0.0 | 0.10 | 2.49 | 2.31 | 100 | 1011.4 |
| 20260906105158 | 21 | 113 | 0.0 | 0.0 | 0.10 | 2.49 | 2.31 | 100 | 1011.4 |
| 20260906104723 | 21 | 92 | 0.0 | 1.6 | 0.15 | 2.49 | 2.31 | 100 | 1011.4 |
| 20260906104223 | 21 | 103 | 0.0 | 3.2 | 0.15 | 2.49 | 2.31 | 100 | 1011.5 |
| 20260906104157 | 21 | 88 | 0.0 | 3.2 | 0.15 | 2.49 | 2.31 | 100 | 1011.5 |
| 20260906103723 | 21 | 85 | 1.6 | 1.6 | 0.28 | 2.49 | 2.31 | 100 | 1011.5 |
| 20260906103223 | 21 | 61 | 4.8 | 4.8 | 0.28 | 2.49 | 2.31 | 100 | 1011.5 |
| 20260906103156 | 21 | 89 | 3.2 | 3.2 | 0.28 | 2.49 | 2.31 | 100 | 1011.5 |
| 20260906102724 | 21 | 116 | 0.0 | 0.0 | 0.48 | 2.46 | 2.29 | 100 | 1011.6 |
| 20260906102222 | 21 | 150 | 0.0 | 0.0 | 0.48 | 2.46 | 2.29 | 100 | 1011.6 |
| 20260906102157 | 21 | 150 | 0.0 | 0.0 | 0.48 | 2.46 | 2.29 | 100 | 1011.6 |
| 20260906101723 | 21 | 66 | 0.0 | 0.0 | 1.14 | 2.46 | 2.29 | 100 | 1011.6 |
| 20260906101223 | 21 | 66 | 0.0 | 0.0 | 1.14 | 2.46 | 2.29 | 100 | 1012.1 |
| 20260906101201 | 21 | 66 | 0.0 | 0.0 | 1.14 | 2.46 | 2.29 | 100 | 1012.1 |
| 20260906100722 | 21 | 58 | 3.2 | 4.8 | 1.35 | 2.46 | 2.29 | 100 | 1012.1 |
| 20260906100223 | 22 | 48 | 1.6 | 4.8 | 1.32 | 2.44 | 2.26 | 100 | 1012.1 |
| 20260906100159 | 22 | 31 | 3.2 | 3.2 | 1.32 | 2.44 | 2.26 | 100 | 1012.1 |
| 20260906095724 | 22 | 52 | 6.4 | 6.4 | 1.35 | 2.44 | 2.26 | 100 | 1012.9 |
| 20260906095222 | 22 | 31 | 4.8 | 4.8 | 1.30 | 2.39 | 2.21 | 100 | 1012.9 |
| 20260906095157 | 22 | 34 | 1.6 | 3.2 | 1.30 | 2.39 | 2.21 | 100 | 1012.9 |
| 20260906094723 | 22 | 13 | 8.0 | 8.0 | 1.27 | 2.36 | 2.18 | 100 | 1012.9 |
| 20260906094224 | 22 | 54 | 8.0 | 9.7 | 1.24 | 2.34 | 2.16 | 100 | 1013.1 |
| 20260906094156 | 22 | 49 | 1.6 | 6.4 | 1.24 | 2.34 | 2.16 | 100 | 1013.1 |
| 20260906093722 | 22 | 51 | 8.0 | 8.0 | 1.22 | 2.31 | 2.13 | 100 | 1013.1 |
| 20260906093223 | 22 | 66 | 11.3 | 11.3 | 1.12 | 2.21 | 2.03 | 100 | 1013.1 |
| 20260906093156 | 22 | 76 | 8.0 | 8.0 | 1.12 | 2.21 | 2.03 | 100 | 1013.1 |
| 20260906092724 | 22 | 312 | 0.0 | 4.8 | 1.07 | 2.16 | 1.98 | 100 | 1012.9 |
| 20260906092222 | 22 | 90 | 4.8 | 4.8 | 0.97 | 2.06 | 1.88 | 100 | 1012.9 |
| 20260906092157 | 22 | 0 | 1.6 | 8.0 | 0.89 | 1.98 | 1.80 | 100 | 1012.9 |
| 20260906091723 | 22 | 306 | 3.2 | 6.4 | 0.71 | 1.80 | 1.63 | 100 | 1012.9 |
| 20260906091224 | 22 | 8 | 9.7 | 16.1 | 0.38 | 1.47 | 1.30 | 100 | 1012.6 |
| 20260906091156 | 22 | 40 | 8.0 | 17.7 | 0.30 | 1.40 | 1.22 | 100 | 1012.6 |
| 20260906090723 | 22 | 342 | 11.3 | 11.3 | 0.03 | 1.12 | 0.94 | 100 | 1012.6 |
| 20260906090224 | 22 | 0 | 11.3 | 11.3 | 0.03 | 1.12 | 0.94 | 100 | 1012.6 |
| 20260906090157 | 22 | 0 | 6.4 | 11.3 | 0.03 | 1.12 | 0.94 | 100 | 1012.6 |
| 20260906085722 | 21 | 350 | 0.0 | 0.0 | 0.03 | 1.12 | 0.94 | 100 | 1012.1 |
| 20260906085223 | 21 | 323 | 0.0 | 0.0 | 0.00 | 1.09 | 0.91 | 100 | 1012.1 |
| 20260906085156 | 21 | 284 | 0.0 | 0.0 | 0.00 | 1.09 | 0.91 | 100 | 1012.1 |
| 20260906084724 | 21 | 284 | 0.0 | 0.0 | 0.00 | 1.09 | 0.91 | 100 | 1012.1 |
| 20260906084222 | 21 | 328 | 0.0 | 0.0 | 0.00 | 1.09 | 0.91 | 100 | 1012.0 |
| 20260906084157 | 21 | 328 | 0.0 | 0.0 | 0.00 | 1.09 | 0.91 | 100 | 1012.0 |
| 20260906083723 | 21 | 356 | 0.0 | 0.0 | 0.00 | 1.09 | 0.91 | 100 | 1012.0 |
| 20260906083224 | 21 | 340 | 0.0 | 1.6 | 0.00 | 1.09 | 0.91 | 100 | 1012.0 |
| 20260906083159 | 21 | 340 | 1.6 | 1.6 | 0.00 | 1.09 | 0.91 | 100 | 1012.0 |
| 20260906082722 | 21 | 316 | 0.0 | 0.0 | 0.03 | 1.09 | 0.91 | 100 | 1012.1 |
| 20260906082223 | 21 | 316 | 0.0 | 3.2 | 0.03 | 1.09 | 0.91 | 100 | 1012.1 |
| 20260906082156 | 21 | 322 | 0.0 | 1.6 | 0.03 | 1.09 | 0.91 | 100 | 1012.1 |
| 20260906081724 | 21 | 0 | 8.0 | 8.0 | 0.23 | 1.09 | 0.91 | 100 | 1012.1 |
| 20260906081223 | 21 | 306 | 0.0 | 0.0 | 0.23 | 1.09 | 0.91 | 100 | 1011.6 |
| 20260906081157 | 21 | 306 | 0.0 | 0.0 | 0.23 | 1.09 | 0.91 | 100 | 1011.6 |
| 20260906080724 | 21 | 318 | 1.6 | 3.2 | 0.58 | 1.09 | 0.91 | 100 | 1011.6 |
| 20260906080222 | 21 | 294 | 0.0 | 0.0 | 0.58 | 1.09 | 0.91 | 100 | 1011.6 |
| 20260906080155 | 21 | 294 | 0.0 | 0.0 | 0.58 | 1.09 | 0.91 | 100 | 1011.6 |
| 20260906075723 | 21 | 243 | 1.6 | 1.6 | 0.58 | 1.09 | 0.91 | 100 | 1011.5 |
| 20260906075226 | 21 | 217 | 0.0 | 0.0 | 0.58 | 1.09 | 0.91 | 100 | 1011.5 |
| 20260906075223 | 21 | 217 | 0.0 | 0.0 | 0.58 | 1.09 | 0.91 | 100 | 1011.5 |
| 20260906075155 | 21 | 217 | 0.0 | 0.0 | 0.58 | 1.09 | 0.91 | 100 | 1011.5 |
| 20260906074723 | 21 | 131 | 0.0 | 0.0 | 0.58 | 1.09 | 0.91 | 100 | 1011.5 |
| 20260906074222 | 21 | 219 | 1.6 | 1.6 | 0.58 | 1.09 | 0.91 | 100 | 1011.5 |
| 20260906074201 | 21 | 281 | 0.0 | 0.0 | 0.58 | 1.09 | 0.91 | 100 | 1011.5 |
| 20260906073723 | 21 | 281 | 0.0 | 0.0 | 0.58 | 1.09 | 0.91 | 100 | 1011.5 |
| 20260906073223 | 21 | 281 | 0.0 | 1.6 | 0.58 | 1.09 | 0.91 | 100 | 1011.5 |
| 20260906073202 | 21 | 281 | 0.0 | 1.6 | 0.58 | 1.09 | 0.91 | 100 | 1011.5 |
| 20260906072722 | 21 | 326 | 0.0 | 1.6 | 0.58 | 1.09 | 0.91 | 100 | 1011.4 |
| 20260906072223 | 21 | 17 | 3.2 | 4.8 | 0.56 | 1.07 | 0.89 | 100 | 1011.4 |
| 20260906072156 | 21 | 0 | 4.8 | 8.0 | 0.56 | 1.07 | 0.89 | 100 | 1011.4 |
| 20260906071723 | 21 | 301 | 1.6 | 3.2 | 0.53 | 1.04 | 0.86 | 100 | 1011.4 |
| 20260906071222 | 21 | 337 | 3.2 | 4.8 | 0.36 | 0.86 | 0.69 | 100 | 1011.7 |
| 20260906071157 | 21 | 299 | 3.2 | 3.2 | 0.36 | 0.86 | 0.69 | 100 | 1011.7 |
| 20260906070723 | 21 | 289 | 3.2 | 8.0 | 0.28 | 0.79 | 0.61 | 100 | 1011.7 |
| 20260906070223 | 21 | 0 | 4.8 | 9.7 | 0.03 | 0.53 | 0.36 | 100 | 1011.7 |
| 20260906070156 | 21 | 343 | 4.8 | 4.8 | 0.00 | 0.51 | 0.33 | 100 | 1011.7 |
| 20260906065722 | 21 | 0 | 4.8 | 6.4 | 0.00 | 0.51 | 0.33 | 100 | 1011.7 |
| 20260906065226 | 21 | 0 | 4.8 | 8.0 | 0.00 | 0.51 | 0.33 | 100 | 1011.7 |
| 20260906065223 | 21 | 0 | 6.4 | 8.0 | 0.00 | 0.51 | 0.33 | 100 | 1011.7 |
| 20260906065155 | 21 | 0 | 4.8 | 8.0 | 0.00 | 0.51 | 0.33 | 100 | 1011.7 |
| 20260906064723 | 21 | 3 | 3.2 | 3.2 | 0.00 | 0.51 | 0.33 | 100 | 1011.7 |
| 20260906064228 | 21 | 78 | 3.2 | 3.2 | 0.00 | 0.51 | 0.33 | 100 | 1011.4 |
| 20260906064222 | 21 | 78 | 0.0 | 3.2 | 0.00 | 0.51 | 0.33 | 100 | 1011.4 |
| 20260906064157 | 21 | 78 | 3.2 | 3.2 | 0.00 | 0.51 | 0.33 | 100 | 1011.4 |
| 20260906063722 | 21 | 130 | 0.0 | 0.0 | 0.00 | 0.51 | 0.33 | 100 | 1011.4 |
| 20260906063222 | 21 | 106 | 0.0 | 0.0 | 0.00 | 0.51 | 0.33 | 100 | 1011.4 |
| 20260906063159 | 21 | 106 | 0.0 | 0.0 | 0.00 | 0.51 | 0.33 | 100 | 1011.4 |
| 20260906062723 | 21 | 107 | 1.6 | 3.2 | 0.05 | 0.51 | 0.33 | 100 | 1011.1 |
| 20260906062223 | 21 | 294 | 0.0 | 0.0 | 0.05 | 0.51 | 0.33 | 100 | 1011.1 |
| 20260906062159 | 21 | 294 | 0.0 | 1.6 | 0.05 | 0.51 | 0.33 | 100 | 1011.1 |
| 20260906061722 | 21 | 329 | 1.6 | 4.8 | 0.15 | 0.51 | 0.33 | 100 | 1011.1 |
| 20260906061223 | 22 | 333 | 4.8 | 6.4 | 0.15 | 0.51 | 0.33 | 100 | 1011.0 |
| 20260906061156 | 22 | 342 | 8.0 | 9.7 | 0.15 | 0.51 | 0.33 | 100 | 1011.0 |
| 20260906060723 | 22 | 343 | 6.4 | 6.4 | 0.33 | 0.51 | 0.33 | 100 | 1011.0 |
| 20260906060223 | 22 | 354 | 14.5 | 14.5 | 0.33 | 0.51 | 0.33 | 99 | 1011.0 |
| 20260906060156 | 22 | 311 | 3.2 | 6.4 | 0.33 | 0.51 | 0.33 | 99 | 1011.0 |
| 20260906055722 | 22 | 6 | 8.0 | 8.0 | 0.51 | 0.51 | 0.33 | 97 | 1011.0 |
| 20260906055222 | 22 | 339 | 4.8 | 4.8 | 0.51 | 0.51 | 0.33 | 97 | 1011.0 |
| 20260906055156 | 22 | 346 | 3.2 | 3.2 | 0.51 | 0.51 | 0.33 | 97 | 1011.0 |
| 20260906054723 | 22 | 311 | 6.4 | 6.4 | 0.51 | 0.51 | 0.33 | 97 | 1011.0 |
| 20260906054224 | 22 | 256 | 1.6 | 1.6 | 0.51 | 0.51 | 0.33 | 99 | 1011.1 |
| 20260906054205 | 22 | 256 | 1.6 | 4.8 | 0.51 | 0.51 | 0.33 | 99 | 1011.1 |
| 20260906053722 | 22 | 308 | 11.3 | 11.3 | 0.51 | 0.51 | 0.33 | 99 | 1011.1 |
| 20260906053222 | 22 | 319 | 4.8 | 4.8 | 0.51 | 0.51 | 0.33 | 99 | 1011.1 |
| 20260906053158 | 22 | 319 | 4.8 | 4.8 | 0.51 | 0.51 | 0.33 | 99 | 1011.1 |
| 20260906052723 | 22 | 274 | 8.0 | 14.5 | 0.51 | 0.51 | 0.33 | 99 | 1012.1 |
| 20260906052659 | 21 | 295 | 6.4 | 16.1 | 0.46 | 0.46 | 0.28 | 97 | 1012.1 |
| 20260906052223 | 21 | 272 | 6.4 | 9.7 | 0.48 | 0.48 | 0.30 | 97 | 1012.1 |
| 20260906052156 | 21 | 295 | 6.4 | 16.1 | 0.46 | 0.46 | 0.28 | 97 | 1012.1 |
| 20260906051722 | 22 | 325 | 4.8 | 17.7 | 0.43 | 0.43 | 0.25 | 93 | 1012.1 |
| 20260906051223 | 22 | 309 | 16.1 | 17.7 | 0.38 | 0.38 | 0.20 | 90 | 1012.5 |
| 20260906051155 | 22 | 320 | 11.3 | 11.3 | 0.38 | 0.38 | 0.20 | 90 | 1012.5 |
| 20260906050723 | 23 | 350 | 12.9 | 16.1 | 0.30 | 0.30 | 0.13 | 88 | 1012.5 |
| 20260906050223 | 24 | 354 | 3.2 | 22.5 | 0.20 | 0.20 | 0.03 | 83 | 1012.5 |
| 20260906050156 | 24 | 0 | 9.7 | 16.1 | 0.18 | 0.18 | 0.00 | 83 | 1012.5 |
| 20260906045724 | 25 | 0 | 12.9 | 16.1 | 0.05 | 0.05 | 0.05 | 80 | 1012.8 |
| 20260906045222 | 25 | 54 | 6.4 | 17.7 | 0.00 | 0.00 | 0.00 | 77 | 1012.8 |
| 20260906045158 | 25 | 14 | 9.7 | 22.5 | 0.00 | 0.00 | 0.00 | 77 | 1012.8 |
| 20260906044723 | 25 | 353 | 3.2 | 11.3 | 0.00 | 0.00 | 0.00 | 77 | 1012.8 |
| 20260906044224 | 26 | 38 | 14.5 | 19.3 | 0.00 | 0.00 | 0.00 | 97 | 1012.5 |
| 20260906044158 | 26 | 6 | 19.3 | 29.0 | 0.00 | 0.00 | 0.00 | 97 | 1012.5 |
| 20260906043722 | 26 | 73 | 9.7 | 14.5 | 0.00 | 0.00 | 0.00 | 97 | 1012.5 |
| 20260906043222 | 26 | 72 | 4.8 | 8.0 | 0.00 | 0.00 | 0.00 | 97 | 1012.5 |
| 20260906043156 | 26 | 113 | 4.8 | 8.0 | 0.00 | 0.00 | 0.00 | 97 | 1012.5 |
| 20260906042723 | 26 | 61 | 4.8 | 6.4 | 0.00 | 0.00 | 0.00 | 97 | 1011.9 |
| 20260906042223 | 26 | 99 | 3.2 | 4.8 | 0.00 | 0.00 | 0.00 | 96 | 1011.9 |
| 20260906042157 | 26 | 106 | 3.2 | 3.2 | 0.00 | 0.00 | 0.00 | 96 | 1011.9 |
| 20260906041724 | 26 | 152 | 1.6 | 1.6 | 0.00 | 0.00 | 0.00 | 96 | 1011.9 |
| 20260906041223 | 26 | 128 | 0.0 | 1.6 | 0.00 | 0.00 | 0.00 | 96 | 1012.0 |
| 20260906041157 | 26 | 130 | 1.6 | 4.8 | 0.00 | 0.00 | 0.00 | 96 | 1012.0 |
| 20260906040723 | 26 | 151 | 1.6 | 4.8 | 0.00 | 0.00 | 0.00 | 95 | 1012.0 |
| 20260906040224 | 26 | 165 | 3.2 | 4.8 | 0.00 | 0.00 | 0.00 | 95 | 1012.0 |
| 20260906040156 | 26 | 114 | 3.2 | 4.8 | 0.00 | 0.00 | 0.00 | 95 | 1012.0 |
| 20260906035723 | 26 | 158 | 0.0 | 1.6 | 0.00 | 0.00 | 0.00 | 95 | 1012.1 |
| 20260906035223 | 26 | 162 | 1.6 | 4.8 | 0.00 | 0.00 | 0.00 | 95 | 1012.1 |
| 20260906035158 | 26 | 106 | 1.6 | 4.8 | 0.00 | 0.00 | 0.00 | 95 | 1012.1 |
| 20260906034724 | 26 | 151 | 4.8 | 4.8 | 0.00 | 0.00 | 0.00 | 94 | 1012.1 |
| 20260906034222 | 26 | 161 | 1.6 | 1.6 | 0.00 | 0.00 | 0.00 | 93 | 1011.8 |
| 20260906034159 | 26 | 145 | 0.0 | 1.6 | 0.00 | 0.00 | 0.00 | 93 | 1011.8 |
| 20260906033723 | 26 | 96 | 0.0 | 0.0 | 0.00 | 0.00 | 0.00 | 92 | 1011.8 |
| 20260906033224 | 26 | 151 | 3.2 | 3.2 | 0.00 | 0.00 | 0.00 | 92 | 1011.8 |
| 20260906033203 | 26 | 161 | 0.0 | 3.2 | 0.00 | 0.00 | 0.00 | 91 | 1011.8 |
| 20260906032722 | 27 | 147 | 0.0 | 1.6 | 0.00 | 0.00 | 0.00 | 91 | 1011.8 |
| 20260906032223 | 27 | 102 | 1.6 | 4.8 | 0.00 | 0.00 | 0.00 | 91 | 1011.8 |
| 20260906032156 | 27 | 93 | 1.6 | 6.4 | 0.00 | 0.00 | 0.00 | 91 | 1011.8 |
| 20260906031722 | 27 | 114 | 0.0 | 0.0 | 0.00 | 0.00 | 0.00 | 91 | 1011.8 |
| 20260906031223 | 27 | 69 | 1.6 | 1.6 | 0.00 | 0.00 | 0.00 | 90 | 1011.3 |
| 20260906031156 | 27 | 78 | 1.6 | 3.2 | 0.00 | 0.00 | 0.00 | 90 | 1011.3 |
| 20260906030724 | 27 | 71 | 3.2 | 3.2 | 0.00 | 0.00 | 0.00 | 90 | 1011.3 |
| 20260906030222 | 27 | 188 | 0.0 | 0.0 | 0.00 | 0.00 | 0.00 | 90 | 1011.3 |
| 20260906030155 | 27 | 188 | 0.0 | 0.0 | 0.00 | 0.00 | 0.00 | 90 | 1011.3 |
| 20260906025723 | 27 | 182 | 0.0 | 0.0 | 0.00 | 0.00 | 0.00 | 90 | 1011.1 |
| 20260906025321 | 27 | 208 | 0.0 | 0.0 | 0.00 | 0.00 | 0.00 | 89 | 1011.1 |
| 20260906025224 | 27 | 155 | 0.0 | 0.0 | 0.00 | 0.00 | 0.00 | 89 | 1011.1 |
| 20260906025157 | 27 | 208 | 0.0 | 0.0 | 0.00 | 0.00 | 0.00 | 89 | 1011.1 |
| 20260906024722 | 27 | 208 | 0.0 | 0.0 | 0.00 | 0.00 | 0.00 | 89 | 1011.1 |
| 20260906024223 | 27 | 208 | 0.0 | 0.0 | 0.00 | 0.00 | 0.00 | 89 | 1011.0 |
| 20260906024157 | 27 | 208 | 0.0 | 0.0 | 0.00 | 0.00 | 0.00 | 89 | 1011.0 |
| 20260906023724 | 27 | 223 | 0.0 | 0.0 | 0.00 | 0.00 | 0.00 | 88 | 1011.0 |
| 20260906023222 | 27 | 198 | 0.0 | 0.0 | 0.00 | 0.00 | 0.00 | 88 | 1011.0 |
| 20260906023158 | 27 | 206 | 0.0 | 0.0 | 0.00 | 0.00 | 0.00 | 87 | 1011.0 |
| 20260906022722 | 27 | 186 | 0.0 | 0.0 | 0.00 | 0.00 | 0.00 | 87 | 1011.0 |
| 20260906022224 | 27 | 265 | 0.0 | 0.0 | 0.00 | 0.00 | 0.00 | 87 | 1011.0 |
| 20260906022156 | 27 | 265 | 0.0 | 0.0 | 0.00 | 0.00 | 0.00 | 87 | 1011.0 |
| 20260906021722 | 27 | 239 | 1.6 | 1.6 | 0.00 | 0.00 | 0.00 | 87 | 1011.0 |
| 20260906021223 | 27 | 232 | 1.6 | 1.6 | 0.00 | 0.00 | 0.00 | 87 | 1011.0 |
| 20260906021156 | 27 | 186 | 0.0 | 0.0 | 0.00 | 0.00 | 0.00 | 87 | 1011.0 |
| 20260906020723 | 28 | 237 | 0.0 | 3.2 | 0.00 | 0.00 | 0.00 | 86 | 1011.0 |
| 20260906020222 | 28 | 241 | 0.0 | 0.0 | 0.00 | 0.00 | 0.00 | 86 | 1011.0 |
| 20260906020157 | 28 | 241 | 0.0 | 1.6 | 0.00 | 0.00 | 0.00 | 86 | 1011.0 |
| 20260906015723 | 28 | 209 | 0.0 | 1.6 | 0.00 | 0.00 | 0.00 | 86 | 1010.8 |
| 20260906015223 | 28 | 216 | 0.0 | 3.2 | 0.00 | 0.00 | 0.00 | 85 | 1010.8 |
| 20260906015156 | 28 | 229 | 0.0 | 1.6 | 0.00 | 0.00 | 0.00 | 85 | 1010.8 |
| 20260906014723 | 28 | 212 | 0.0 | 0.0 | 0.00 | 0.00 | 0.00 | 85 | 1010.8 |
| 20260906014222 | 28 | 202 | 0.0 | 0.0 | 0.00 | 0.00 | 0.00 | 84 | 1010.4 |
| 20260906014157 | 28 | 202 | 0.0 | 0.0 | 0.00 | 0.00 | 0.00 | 84 | 1010.4 |
| 20260906013722 | 28 | 257 | 0.0 | 1.6 | 0.00 | 0.00 | 0.00 | 83 | 1010.4 |
| 20260906013223 | 28 | 219 | 0.0 | 1.6 | 0.00 | 0.00 | 0.00 | 82 | 1010.4 |
| 20260906013156 | 28 | 205 | 0.0 | 1.6 | 0.00 | 0.00 | 0.00 | 82 | 1010.4 |
| 20260906012723 | 28 | 265 | 3.2 | 3.2 | 0.00 | 0.00 | 0.00 | 82 | 1010.1 |
| 20260906012222 | 29 | 246 | 0.0 | 0.0 | 0.00 | 0.00 | 0.00 | 81 | 1010.1 |
| 20260906012157 | 29 | 240 | 0.0 | 1.6 | 0.00 | 0.00 | 0.00 | 81 | 1010.1 |
| 20260906011723 | 29 | 230 | 0.0 | 0.0 | 0.00 | 0.00 | 0.00 | 80 | 1010.1 |
| 20260906011251 | 29 | 241 | 3.2 | 3.2 | 0.00 | 0.00 | 0.00 | 79 | 1009.9 |
| 20260906011224 | 29 | 241 | 0.0 | 1.6 | 0.00 | 0.00 | 0.00 | 80 | 1009.9 |
| 20260906011157 | 29 | 241 | 3.2 | 3.2 | 0.00 | 0.00 | 0.00 | 79 | 1009.9 |
| 20260906010722 | 29 | 229 | 3.2 | 8.0 | 0.00 | 0.00 | 0.00 | 79 | 1009.9 |
| 20260906010223 | 29 | 232 | 1.6 | 4.8 | 0.00 | 0.00 | 0.00 | 77 | 1009.9 |
| 20260906010156 | 29 | 215 | 4.8 | 8.0 | 0.00 | 0.00 | 0.00 | 77 | 1009.9 |
| 20260906005724 | 30 | 193 | 6.4 | 6.4 | 0.00 | 0.00 | 0.00 | 76 | 1010.0 |
| 20260906005222 | 30 | 257 | 1.6 | 4.8 | 0.00 | 0.00 | 0.00 | 74 | 1010.0 |
| 20260906005157 | 30 | 261 | 4.8 | 4.8 | 0.00 | 0.00 | 0.00 | 71 | 1010.0 |
| 20260906004724 | 30 | 131 | 0.0 | 0.0 | 0.00 | 0.00 | 0.00 | 70 | 1010.0 |
| 20260906004222 | 30 | 131 | 0.0 | 0.0 | 0.00 | 0.00 | 0.00 | 70 | 1009.9 |
| 20260906004156 | 30 | 131 | 0.0 | 0.0 | 0.00 | 0.00 | 0.00 | 70 | 1009.9 |
| 20260906003724 | 30 | 131 | 0.0 | 0.0 | 0.00 | 0.00 | 0.00 | 70 | 1009.9 |
| 20260906003223 | 30 | 131 | 0.0 | 0.0 | 0.00 | 0.00 | 0.00 | 71 | 1009.9 |
| 20260906003155 | 30 | 131 | 0.0 | 0.0 | 0.00 | 0.00 | 0.00 | 71 | 1009.9 |
| 20260906002723 | 30 | 131 | 0.0 | 0.0 | 0.00 | 0.00 | 0.00 | 71 | 1009.8 |
| 20260906002223 | 30 | 131 | 0.0 | 0.0 | 0.00 | 0.00 | 0.00 | 71 | 1009.8 |
| 20260906002155 | 30 | 131 | 0.0 | 0.0 | 0.00 | 0.00 | 0.00 | 71 | 1009.8 |
| 20260906001723 | 30 | 131 | 0.0 | 0.0 | 0.00 | 0.00 | 0.00 | 71 | 1009.8 |
| 20260906001222 | 30 | 131 | 0.0 | 0.0 | 0.00 | 0.00 | 0.00 | 71 | 1009.9 |
| 20260906001157 | 30 | 131 | 0.0 | 0.0 | 0.00 | 0.00 | 0.00 | 71 | 1009.9 |
| 20260906000723 | 31 | 131 | 0.0 | 0.0 | 0.00 | 0.00 | 0.00 | 70 | 1009.9 |
| 20260906000223 | 31 | 131 | 0.0 | 0.0 | 0.00 | 0.00 | 0.00 | 70 | 1009.9 |
| 20260906000157 | 31 | 131 | 0.0 | 0.0 | 0.00 | 0.00 | 0.00 | 70 | 1009.9 |
| 20260905235914 | 33 | 236 | 0.0 | 1.6 | 0.00 | 0.74 | 0.03 | 66 | 1014.4 |
| 20260905235912 | 33 | 267 | 1.6 | 3.2 | 0.00 | 0.74 | 0.03 | 65 | 1014.4 |
| 20260905235909 | 33 | 223 | 3.2 | 3.2 | 0.00 | 0.74 | 0.03 | 64 | 1014.4 |
| 20260905235723 | 31 | 131 | 0.0 | 1.6 | 0.00 | 0.00 | 0.00 | 70 | 1010.0 |
| 20260905235223 | 31 | 131 | 1.6 | 1.6 | 0.00 | 0.00 | 0.00 | 70 | 1010.0 |
| 20260905235158 | 31 | 131 | 0.0 | 1.6 | 0.00 | 0.00 | 0.00 | 70 | 1010.0 |
| 20260905234722 | 31 | 131 | 0.0 | 1.6 | 0.00 | 0.00 | 0.00 | 70 | 1010.0 |
| 20260905234223 | 31 | 131 | 0.0 | 0.0 | 0.00 | 0.00 | 0.00 | 69 | 1009.9 |
| 20260905234156 | 32 | 131 | 0.0 | 0.0 | 0.00 | 0.00 | 0.00 | 69 | 1009.9 |
| 20260905233723 | 32 | 131 | 1.6 | 1.6 | 0.00 | 0.03 | 0.00 | 69 | 1009.9 |
| 20260905233222 | 32 | 131 | 0.0 | 0.0 | 0.00 | 0.03 | 0.00 | 69 | 1009.9 |
| 20260905233157 | 32 | 131 | 0.0 | 0.0 | 0.00 | 0.03 | 0.00 | 68 | 1009.9 |
| 20260905232724 | 32 | 131 | 0.0 | 0.0 | 0.00 | 0.03 | 0.00 | 68 | 1010.0 |
| 20260905232222 | 32 | 131 | 0.0 | 1.6 | 0.00 | 0.03 | 0.00 | 67 | 1010.0 |
| 20260905232159 | 32 | 131 | 0.0 | 0.0 | 0.00 | 0.03 | 0.00 | 67 | 1010.0 |
| 20260905231724 | 32 | 131 | 0.0 | 0.0 | 0.00 | 0.03 | 0.00 | 65 | 1010.0 |
| 20260905231223 | 32 | 131 | 0.0 | 0.0 | 0.00 | 0.03 | 0.00 | 65 | 1009.9 |
| 20260905231156 | 32 | 131 | 0.0 | 0.0 | 0.00 | 0.03 | 0.00 | 65 | 1009.9 |
| 20260905230724 | 32 | 131 | 0.0 | 1.6 | 0.00 | 0.03 | 0.00 | 65 | 1009.9 |
| 20260905230223 | 32 | 131 | 1.6 | 1.6 | 0.00 | 0.03 | 0.00 | 65 | 1009.9 |
| 20260905230155 | 32 | 131 | 1.6 | 3.2 | 0.00 | 0.03 | 0.00 | 64 | 1009.9 |
| 20260905225722 | 32 | 82 | 3.2 | 3.2 | 0.00 | 0.03 | 0.00 | 64 | 1009.9 |
| 20260905225224 | 32 | 113 | 0.0 | 1.6 | 0.00 | 0.03 | 0.00 | 64 | 1009.9 |
| 20260905225157 | 32 | 103 | 0.0 | 3.2 | 0.00 | 0.03 | 0.00 | 64 | 1009.9 |
| 20260905224722 | 33 | 96 | 3.2 | 3.2 | 0.00 | 0.03 | 0.00 | 63 | 1009.9 |
| 20260905224223 | 33 | 116 | 1.6 | 3.2 | 0.00 | 0.03 | 0.00 | 61 | 1009.9 |
| 20260905224156 | 33 | 109 | 0.0 | 3.2 | 0.00 | 0.03 | 0.00 | 61 | 1009.9 |
| 20260905223723 | 33 | 110 | 0.0 | 3.2 | 0.00 | 0.03 | 0.00 | 61 | 1009.9 |
| 20260905223222 | 33 | 136 | 1.6 | 3.2 | 0.00 | 0.03 | 0.00 | 64 | 1009.9 |
| 20260905223155 | 33 | 88 | 1.6 | 1.6 | 0.00 | 0.03 | 0.00 | 60 | 1009.9 |
| 20260905222723 | 33 | 88 | 1.6 | 1.6 | 0.00 | 0.03 | 0.00 | 62 | 1009.8 |
| 20260905222231 | 33 | 76 | 0.0 | 1.6 | 0.00 | 0.03 | 0.00 | 61 | 1009.8 |
| 20260905222223 | 33 | 76 | 0.0 | 1.6 | 0.00 | 0.03 | 0.00 | 61 | 1009.8 |
| 20260905222156 | 33 | 76 | 0.0 | 1.6 | 0.00 | 0.03 | 0.00 | 61 | 1009.8 |
| 20260905221723 | 33 | 76 | 0.0 | 0.0 | 0.00 | 0.03 | 0.00 | 59 | 1009.8 |
| 20260905221222 | 33 | 18 | 0.0 | 0.0 | 0.00 | 0.03 | 0.00 | 58 | 1009.7 |
| 20260905221157 | 33 | 18 | 0.0 | 0.0 | 0.00 | 0.03 | 0.00 | 58 | 1009.7 |
| 20260905220723 | 33 | 13 | 0.0 | 1.6 | 0.00 | 0.03 | 0.00 | 58 | 1009.7 |
| 20260905220223 | 33 | 64 | 1.6 | 4.8 | 0.00 | 0.03 | 0.00 | 60 | 1009.7 |
| 20260905220156 | 33 | 52 | 4.8 | 4.8 | 0.00 | 0.03 | 0.00 | 60 | 1009.7 |
| 20260905215722 | 33 | 76 | 0.0 | 3.2 | 0.00 | 0.03 | 0.00 | 58 | 1009.7 |
| 20260905215222 | 33 | 157 | 0.0 | 0.0 | 0.00 | 0.03 | 0.00 | 61 | 1009.7 |
| 20260905215155 | 33 | 157 | 0.0 | 0.0 | 0.00 | 0.03 | 0.00 | 61 | 1009.7 |
| 20260905214723 | 33 | 164 | 1.6 | 3.2 | 0.00 | 0.03 | 0.00 | 58 | 1009.7 |
| 20260905214222 | 34 | 55 | 0.0 | 1.6 | 0.00 | 0.03 | 0.00 | 58 | 1009.9 |
| 20260905214157 | 34 | 41 | 0.0 | 1.6 | 0.00 | 0.03 | 0.00 | 58 | 1009.9 |
| 20260905213722 | 34 | 93 | 1.6 | 4.8 | 0.00 | 0.03 | 0.00 | 56 | 1009.9 |
| 20260905213223 | 34 | 0 | 0.0 | 6.4 | 0.00 | 0.03 | 0.00 | 57 | 1009.9 |
| 20260905213156 | 34 | 31 | 6.4 | 6.4 | 0.00 | 0.03 | 0.00 | 56 | 1009.9 |
| 20260905212724 | 34 | 147 | 1.6 | 4.8 | 0.00 | 0.03 | 0.00 | 54 | 1010.1 |
| 20260905212223 | 34 | 49 | 1.6 | 3.2 | 0.00 | 0.03 | 0.00 | 57 | 1010.1 |
| 20260905212156 | 34 | 68 | 0.0 | 0.0 | 0.00 | 0.03 | 0.00 | 57 | 1010.1 |
| 20260905211722 | 34 | 68 | 0.0 | 1.6 | 0.00 | 0.03 | 0.00 | 55 | 1010.1 |
| 20260905211223 | 35 | 49 | 4.8 | 4.8 | 0.00 | 0.03 | 0.00 | 57 | 1010.2 |
| 20260905211156 | 35 | 64 | 4.8 | 6.4 | 0.00 | 0.03 | 0.00 | 54 | 1010.2 |
| 20260905210722 | 35 | 58 | 0.0 | 0.0 | 0.00 | 0.03 | 0.00 | 58 | 1010.2 |
| 20260905210222 | 35 | 16 | 1.6 | 1.6 | 0.00 | 0.03 | 0.00 | 58 | 1010.2 |
| 20260905210157 | 35 | 16 | 1.6 | 3.2 | 0.00 | 0.03 | 0.00 | 54 | 1010.2 |